Location: Buckland
(65.9785°N, 161.1281°W)
Time: 04:28:43
(UTC+00:00)

Transit 4A - Pass Details

Date: 27 November 2020
Orbit: 864 x 980 km, 66.8° (Epoch: 26 January)

Event Time Altitude Azimuth Distance (km) Brightness Sun altitude
Rises 17:58:07 0° 160° (SSE) 3,654 11.8 -11.1°
Reaches altitude 10° 18:01:42 10° 140° (SE) 2,724 11.6 -10.8°
Maximum altitude 18:05:19 16° 105° (ESE) 2,331 11.2 -10.5°
Drops below altitude 10° 18:08:57 10° 71° (ENE) 2,744 11.0 -10.2°
Sets 18:12:34 0° 51° (NE) 3,694 11.3 -9.9°
